Find Starlink 30813

NORAD ID: 58213 Int'l Des: 2023-170 Owner: SPXS Country: US Constellation: starlink operational
LEOCIRCULAR

当前视图

正在加载3D地球...

About Starlink 30813

Starlink 30813 (NORAD 58213) is a starlink constellation satellite (v2 mini) launched Nov 4, 2023 by SPXS of US. It operates in LEO, CIRCULAR orbit with a mass of 730.00 kg.

关于 Starlink 30813

正在加载描述...

即将过境

Passes for default location (London). Set your location on the main map for personalized predictions.

高度历史

Loading altitude history...

两行轨道根数

1 58213U 23170H 26166.39446603 -.00000130 00000-0 48072-5 0 9999
2 58213 43.0036 2.3131 0001497 258.7752 101.2932 15.27575306145249
Epoch: Jun 15, 2026 • Age: 12 hours

当前状态

高度 483.1 km
速度 7.63 km/s
星下点 -2.98°S, 40.27°W
发射日期 Nov 4, 2023
运行时间 2.6 years
类型 internet

技术详情

分类 Payload
质量 730.00 kg
干质量 700.00 kg
总质量 730.00 kg
长度 0.30 m
直径 4.10 m
跨度 29.00 m
形状 Box + pan
制造商 SPXS
平台类型 Starlink V2M
阶段状态 In Orbit
所有者/国家 SPXS/US

Most Searched